Regional Weather Roundup
Issued by NWS

Current Version | Previous Version | Text Only | Print | Product List | Glossary On
Versions: 1 2 3 4 5 6 7 8 9 10 11 12 13 14 15 16 17 18 19 20 21 22 23 24 25 26 27 28 29 30 31 32 33 34 35 36 37 38 39 40 41 42 43 44 45 46 47 48 49 50
000
ASUS42 KTBW 222210
RWRFL
FLORIDA REGIONAL WEATHER ROUNDUP
NATIONAL WEATHER SERVICE TAMPA BAY RUSKIN FL
500 PM EST MON DEC 22 2014

NOTE: "FAIR" INDICATES FEW OR NO CLOUDS BELOW 12,000 FEET WITH NO
SIGNIFICANT WEATHER AND/OR OBSTRUCTIONS TO VISIBILITY.


FLZ001>010-012>015-112-114-115-222300-
PANHANDLE FLORIDA

CITY           SKY/WX    TMP DP  RH WIND       PRES   REMARKS
PENSACOLA      CLOUDY    63  62  97 SE9       29.78F
PENSACOLA NAS  MOCLDY    69  66  90 SE8       29.78S
MILTON NAS     CLOUDY    68  61  78 S9        29.79S
CRESTVIEW      CLOUDY    67  61  81 SE3       29.82S
DUKE FIELD     CLOUDY    66  61  85 VRB3      29.81S
VALPARAISO     CLOUDY    65  62  92 E3        29.81R
MARY ESTHER    LGT RAIN  66  61  82 E3        29.79S
PANAMA CITY    LGT RAIN  67  64  90 CALM      29.80S
TYNDALL AFB    PTCLDY    71  67  88 S12       29.82S
APALACHICOLA   FOG       69  66  90 SE3       29.84S VSB 1/2

STATION/POSITION SKY/WX   TEMP    WIND        PRES    WAVE   SWELL
                          AIR SEA DIR/SP/G            HT/PER HT/PER
                          (F)     (DEG/KT/KT) (MB)    (FT/S) (FT/S)
30.1N   87.6W              72 71  210/ 12/ 12 1007.6S   3/ 5   2/ 7
29.2N   88.2W              74 74  220/ 14/ 16 1008.2R   3/ 4
28.7N   86.0W              76 74  230/ 12/ 14 1010.2R   5/ 7   3/ 7
PANAMA CITY BEAC           65 62  140/ 12/ 13 1008.9F
CAPE SAN BLAS    NOT AVBL
TOWER C                    72     220/ 15/ 15 1010.4R
28.5N   84.5W              75 74  210/ 12/ 16 1010.8R   5/ 7   3/ 7

$$
FLZ011-016>038-118-127-128-134-139-239-222300-
NORTH FLORIDA

CITY           SKY/WX    TMP DP  RH WIND       PRES   REMARKS
MARIANNA       CLOUDY    59  59 100 E7        29.83S
TALLAHASSEE    CLOUDY    63  60  90 SE7       29.86S
PERRY          RAIN      64  64  99 CALM      29.89R
CROSS CITY       N/A     71  69  93 SW10      29.88R
LAKE CITY      CLOUDY    64  64 100 CALM      29.89S
GAINESVILLE    CLOUDY    73  70  90 CALM      29.89R
MAYPORT NAS    LGT RAIN  64  63  94 VRB6      29.91R
JACKSONVILLE   TSTM      64  64 100 N9        29.89S VSB 1/2
JAX NAS        CLOUDY    73  65  75 SE9       29.89R
JAX CRAIG      CLOUDY    67  64  90 NE7       29.89R
JAX CECIL      MOCLDY    68  68 100 CALM      29.89R FOG
FERNANDINA BEA CLOUDY    68  66  94 NE5       29.90S
ST AUGUSTINE   CLOUDY    72  66  81 S6        29.91R

STATION/POSITION SKY/WX   TEMP    WIND        PRES    WAVE   SWELL
                          AIR SEA DIR/SP/G            HT/PER HT/PER
                          (F)     (DEG/KT/KT) (MB)    (FT/S) (FT/S)
SHELL POINT                62      50/  4/  8   N/A
KEATON BEACH               64     160/ 11/ 13 1011.8R
CEDAR KEY                  66     190/ 17/ 19 1012.6R
FERNANDINA                 63 59   90/  5/  8 1011.8R
30.7N   81.3W                 61                N/A     3/ 8
MAYPORT                    65 62  360/  5/ 12   N/A
31.4N   80.9W              56 59   70/ 17/ 19 1012.6F   4/ 5   2/ 7
ST AUGUSTINE               65     180/ 12/ 13 1012.9R

$$
FLZ040-043>046-052-053-057-058-063-144-222300-
INTERIOR CENTRAL FLORIDA

CITY           SKY/WX    TMP DP  RH WIND       PRES   REMARKS
OCALA          MOCLDY    73  68  83 S6        29.91R
THE VILLAGES     N/A     77  70  78 S5        29.81R
LEESBURG       MOCLDY    74  67  78 S9        29.91S
SANFORD        MOCLDY    76  67  73 S6        29.91R
ORLANDO EXEC   MOCLDY    77  68  73 S6        29.91S
ORLANDO INTL   CLOUDY    77  69  76 S5        29.92R
KISSIMMEE      PTCLDY    75  70  83 S5        29.92S
WINTER HAVEN   CLOUDY    78  68  71 SW7       29.93R
LAKELAND       PTCLDY    77  70  78 SW9       29.92S
BARTOW         MOCLDY    77  66  69 S9        29.93R
OKEECHOBEE     PTCLDY    77  64  65 S5        29.94R

$$
FLZ041-047-054-059-064-141-147-222300-
EAST CENTRAL FLORIDA

CITY           SKY/WX    TMP DP  RH WIND       PRES   REMARKS
DAYTONA BEACH  MOCLDY    75  67  76 S6        29.91R
DELAND         MOCLDY   N/A N/A N/A S6        29.92S
NEW SMYRNA BEA PTCLDY    73  68  83 SE8       29.92S
JFK SPACE CTR  MOCLDY    74  68  80 S9        29.92S HAZE
TITUSVILLE     MOCLDY    73  70  88 S6        29.92S
CAPE CANAVERAL MOCLDY    74  69  86 S10       29.92S
PATRICK AFB    MOCLDY    73  69  87 SE10      29.93R
MELBOURNE      PTCLDY    79  64  60 S7        29.93R
VERO BEACH     CLEAR     77  67  71 SE8       29.93S
FT PIERCE      PTCLDY    77  68  73 VRB5      29.93R
STUART         PTCLDY    77  66  69 SE8       29.95

STATION/POSITION SKY/WX   TEMP    WIND        PRES    WAVE   SWELL
                          AIR SEA DIR/SP/G            HT/PER HT/PER
                          (F)     (DEG/KT/KT) (MB)    (FT/S) (FT/S)
28.5N   80.2W              76 76  170/ 12/ 14 1013.7R
28.9N   78.5W              76 77  190/ 14/ 17 1014.7F   4/ 9   3/ 9
TRIDENT PIER               72 67  140/  8/ 10 1012.9F
28.4N   80.5W                 68                N/A     2/ 8
27.6N   80.2W                 76                N/A     4/ 4

$$
FLZ050-056-061-142-242-148-248-149-249-151-251-155-255-
160-260-222300-
WEST CENTRAL FLORIDA

CITY           SKY/WX    TMP DP  RH WIND       PRES   REMARKS
CRYSTAL RIVER  MOCLDY    73  68  83 SW6       29.90R
INVERNESS      FAIR      75  66  73 SW3       29.91R
BROOKSVILLE    MOCLDY    76  67  73 S17G24    29.92R
ZEPHYRHILLS    MOCLDY    77  68  73 SW8       29.92S
CLEARWATER     PTCLDY    74  69  85 S15       29.91R
TAMPA INTL     CLOUDY    72  67  84 S13       29.92R
TAMPA EXEC     MOCLDY    79  68  69 SW9       29.92R
PLANT CITY     MOCLDY    81  68  65 SW9       29.94R
MACDILL AFB    MOCLDY    72  70  92 S10       29.92S
PETER O KNIGHT MOCLDY    75  70  83 SW9       29.92R
ST PETERSBURG  PTCLDY    73  68  84 SW10      29.91R
SARASOTA       MOCLDY    73  69  87 S15       29.91R
VENICE         FAIR      72  68  88 S13       29.93S

STATION/POSITION SKY/WX   TEMP    WIND        PRES    WAVE   SWELL
                          AIR SEA DIR/SP/G            HT/PER HT/PER
                          (F)     (DEG/KT/KT) (MB)    (FT/S) (FT/S)
CEDAR KEY                  66     190/ 17/ 19 1012.6R
28.5N   84.5W              75 74  210/ 12/ 16 1010.8R   5/ 7   3/ 7
27.3N   84.3W                 75                N/A     4/ 6
CLEARWATER BEACH           73 65  160/ 15/ 20 1012.2F
MIDDLE TAMPA BAY           71     200/ 12/ 13 1013.1R
VENICE                     69 67  150/ 13/ 14 1013.1R

$$
FLZ066-069-070-075>078-162-262-165-265-222300-
SOUTHWEST FLORIDA AND KEYS

CITY           SKY/WX    TMP DP  RH WIND       PRES   REMARKS
PUNTA GORDA    MOCLDY    75  69  81 S12       29.95R
FT MYERS       MOCLDY    77  70  79 S9        29.92S
SOUTHWEST INTL PTCLDY    77  69  76 SW12      29.93S
NAPLES         MOCLDY    77  70  79 S12       29.93S
MARCO ISLAND   MOCLDY    75  70  83 S7        29.94S
MARATHON       PTCLDY    78  73  84 S5        29.94S
KEY WEST NAS   PTCLDY    78  71  79 SE9       29.94S
KEY WEST INTL  PTCLDY    78  72  81 SE8       29.94S

STATION/POSITION SKY/WX   TEMP    WIND        PRES    WAVE   SWELL
                          AIR SEA DIR/SP/G            HT/PER HT/PER
                          (F)     (DEG/KT/KT) (MB)    (FT/S) (FT/S)
VENICE                     69 67  150/ 13/ 14 1013.1R
NAPLES                     75 76  170/ 10/ 12 1014.2S
26.0N   85.6W              78 76  190/ 10/ 10 1011.0R   4/ 7   3/ 7
DRY TORTUGAS               76     130/  6/  7 1013.1F
NW FL BAY                  74     160/  2/  3 1014.4F
SAND KEY                   77     150/  9/ 11 1013.7F
SOMBRERO KEY               78     150/ 10/ 11 1014.6S
LONG KEY                   76 74  180/  7/  7 1014.8S
MOLASSES REEF              77 76  160/  9/ 11 1014.3R

$$
FLZ067-068-071>074-168-172>174-222300-
SOUTHEAST FLORIDA

CITY           SKY/WX    TMP DP  RH WIND       PRES   REMARKS
W PALM BEACH   MOCLDY    78  69  73 S13       29.93S
FT LAUDER-EXEC PTCLDY    78  69  73 S9        29.94S
FT LAUDERDALE  CLOUDY    77  70  79 SE12      29.94S
POMPANO BEACH  PTCLDY    78  69  73 S12       29.95S
PEMBROKE PINES PTCLDY    79  69  71 SE13      29.96R
OPA LOCKA      PTCLDY    78  69  73 S12       29.95S
MIAMI          MOCLDY    78  69  73 SE10      29.96R
WEST KENDALL   PTCLDY    78  70  76 SE10      29.95S
HOMESTEAD      PTCLDY    77  70  77 S5        29.95R

STATION/POSITION SKY/WX   TEMP    WIND        PRES    WAVE   SWELL
                          AIR SEA DIR/SP/G            HT/PER HT/PER
                          (F)     (DEG/KT/KT) (MB)    (FT/S) (FT/S)
PORT EVERGLADES            77     160/  7/ 11 1014.0
VIRGINIA KEY               77 74  180/  7/  9 1014.9R
LAKE WORTH                 76 77  170/ 14/ 17 1013.7R
FOWEY ROCKS                77 74  160/ 10/ 10 1014.7R
SETTLEMENT POINT           76     170/ 10/ 13 1015.3S

$$



USA.gov is the U.S. government's official web portal to all federal, state and local government web resources and services.